Weather in Krutikha

Russia / Altai Krai     53°57′54″N   81°12′30″E
temp.,
°C
wind,
m/s
gust,
m/s
humid.,
%
clouds,
%
prec.,
mm/h
press.,
hPa
HPBL,
m
22 january, sat
sat2201:00−21n2210034 0.0 103219
04:00−21n2310080 0.0 103238
07:00−20nne1299100 0.0 103345
10:00−19n1299100 0.0 103429
13:00−12n1290100 0.0 1033131
16:00−10n2391100 0.0 1033147
19:00−15nne1198100 0.0 103511
22:00−18n119951 0.0 10369
23 january, sun
sun2301:00−20nnw1110051 0.0 10369
04:00−21n1110076 0.0 103613
07:00−21n1110090 0.0 103710
10:00−22nnw1110097 0.0 103711
13:00−13nnw129381 0.1 1037131
16:00−11nw239169 0.0 1036178
19:00−19nw2210018 0.0 103815
22:00−22nw1210077 0.0 103821
24 january, mon
mon2401:00−20nw1298100 0.0 103844
04:00−20nw129884 0.0 103827
07:00−25n1110019 0.0 104016
10:00−26nnw1110067 0.0 104112
13:00−17s119352 0.0 1041119
16:00−15ssw119154 0.0 1040137
19:00−22sw1110058 0.0 10419
22:00−25ssw1110079 0.0 10419
25 january, tue
tue2501:00−25ssw11100100 0.0 104015
04:00−23ssw12100100 0.0 103943
07:00−19s2398100 0.1 103888
10:00−18s2398100 0.0 103792
13:00−15ssw2392100 0.1 1036213
16:00−14ssw2391100 0.0 1035235
19:00−18s229895 0.0 103539
22:00−22ssw1110075 0.0 103616
26 january, wed
wed2601:00−23s1110066 0.0 103517
04:00−24sse1210075 0.0 103526
07:00−21sse2399100 0.0 103875
10:00−19se2597100 0.0 1038123
13:00−15sse2490100 0.0 1036202
16:00−13se3589100 0.0 1035251
19:00−15se2596100 0.0 1035129
22:00−15se3794100 0.0 1034224